Change the Weather History Date:

Friday, October 17, 2014

  Actual Average Record
Temperature  
Mean Temperature 42 °F 44 °F  
Max Temperature 52 °F 56 °F 87 °F (1929)
Min Temperature 32 °F 31 °F 9 °F (1948)
Degree Days  
Heating Degree Days 23 21  
Month to date heating degree days 295 309  
Since 1 July heating degree days 658 663  
Cooling Degree Days 0 0  
Month to date cooling degree days 0 0  
Year to date cooling degree days 256 418  
Moisture  
Dew Point 35 °F    
Average Humidity 76    
Maximum Humidity 92    
Minimum Humidity 59    
Precipitation  
Precipitation 0.00 in 0.04 in 0.65 in (1994)
Month to date precipitation 0.35 0.76  
Year to date precipitation 21.48 14.52  
Sea Level Pressure  
Sea Level Pressure 30.18 in    
Wind  
Wind Speed 8 mph (North)    
Max Wind Speed 17 mph    
Max Gust Speed 22 mph    
Visibility 10 miles    
Events      
T = Trace of Precipitation, MM = Missing Value Source: NWS Daily Summary

Daily Weather History Graph

Daily Weather History Graph

Search for Another Location

Airport or City:

Trip Planner

Search our weather history database for the weather conditions in past years. The results will help you decide how hot, cold, wet, or windy it might be!

Date:

Astronomy

Oct. 17, 2014 Rise Set
Actual Time 7:11 AM MDT 6:00 PM MDT
Civil Twilight 6:41 AM MDT 6:31 PM MDT
Nautical Twilight 6:06 AM MDT 7:06 PM MDT
Astronomical Twilight 5:30 AM MDT 7:41 PM MDT
Moon 12:57 AM MDT (10/17) 3:07 PM MDT (10/17)
Length of Visible Light 11h 49m
Length of Day
10h 48m
Waning Crescent, 32% of the Moon is Illuminated
Oct 17
Waning Crescent
Oct 23
New
Oct 30
First Quarter
Nov 6
Full
Nov 14
Last Quarter

Hourly Weather History & Observations

Time (MDT) Temp. Windchill Dew Point Humidity Pressure Visibility Wind Dir Wind Speed Gust Speed Precip Events Conditions
12:56 AM 43.0 °F 36.8 °F 37.9 °F 82% 30.06 in 10.0 mi NNW 11.5 mph - N/A   Scattered Clouds
1:56 AM 41.0 °F 35.2 °F 36.0 °F 82% 30.09 in 10.0 mi NW 9.2 mph - N/A   Clear
2:56 AM 37.0 °F 31.6 °F 34.0 °F 89% 30.10 in 10.0 mi NW 6.9 mph - N/A   Clear
3:56 AM 35.1 °F 27.9 °F 33.1 °F 92% 30.11 in 10.0 mi NW 9.2 mph - N/A   Clear
4:36 AM 37.0 °F 30.4 °F 35.1 °F 93% 30.07 in 10.0 mi NW 9.2 mph - N/A   Mostly Cloudy
4:56 AM 42.1 °F 35.7 °F 37.9 °F 85% 30.12 in 10.0 mi NNW 11.5 mph - N/A   Overcast
5:56 AM 43.0 °F 35.4 °F 36.0 °F 76% 30.14 in 10.0 mi NNW 16.1 mph 23.0 mph N/A   Overcast
6:56 AM 42.1 °F 37.7 °F 37.0 °F 82% 30.16 in 10.0 mi North 6.9 mph - N/A   Overcast
7:56 AM 42.1 °F 36.6 °F 37.0 °F 82% 30.18 in 10.0 mi North 9.2 mph - N/A   Overcast
8:53 AM 42.8 °F 37.5 °F 35.6 °F 76% 30.17 in 10.0 mi North 9.2 mph - N/A   Overcast
8:56 AM 42.1 °F 37.7 °F 36.0 °F 79% 30.21 in 10.0 mi North 6.9 mph - N/A   Overcast
9:23 AM 42.1 °F 35.2 °F 36.0 °F 79% 30.17 in 10.0 mi NNW 12.7 mph - N/A   Overcast
9:56 AM 43.0 °F 37.7 °F 36.0 °F 76% 30.22 in 10.0 mi NNW 9.2 mph - N/A   Overcast
10:56 AM 44.1 °F 39.0 °F 36.0 °F 73% 30.23 in 10.0 mi North 9.2 mph - N/A   Overcast
11:32 AM 44.1 °F 39.5 °F 36.0 °F 73% 30.18 in 10.0 mi North 8.1 mph - N/A   Overcast
11:56 AM 44.1 °F 38.6 °F 36.0 °F 73% 30.23 in 10.0 mi NNW 10.4 mph - N/A   Overcast
12:56 PM 44.1 °F 39.5 °F 36.0 °F 73% 30.22 in 10.0 mi NNW 8.1 mph - N/A   Overcast
1:11 PM 45.0 °F 41.8 °F 37.0 °F 74% 30.17 in 10.0 mi North 5.8 mph - N/A   Overcast
1:56 PM 46.9 °F - 36.0 °F 66% 30.20 in 10.0 mi WNW 5.8 mph - N/A   Mostly Cloudy
2:06 PM 48.0 °F - 37.0 °F 66% 30.16 in 10.0 mi NNW 4.6 mph - N/A   Scattered Clouds
2:56 PM 48.9 °F - 37.0 °F 64% 30.19 in 10.0 mi NNW 4.6 mph - N/A   Clear
3:56 PM 51.1 °F - 37.0 °F 59% 30.20 in 10.0 mi Calm Calm - N/A   Clear
4:56 PM 50.0 °F - 37.0 °F 61% 30.18 in 10.0 mi East 4.6 mph - N/A   Clear
5:56 PM 43.0 °F 38.8 °F 35.1 °F 74% 30.20 in 10.0 mi East 6.9 mph - N/A   Clear
6:56 PM 41.0 °F 36.4 °F 34.0 °F 76% 30.21 in 10.0 mi ESE 6.9 mph - N/A   Clear
7:56 PM 36.0 °F 29.6 °F 32.0 °F 86% 30.22 in 10.0 mi ESE 8.1 mph - N/A   Clear
8:56 PM 34.0 °F 27.2 °F 30.0 °F 85% 30.23 in 10.0 mi SE 8.1 mph - N/A   Clear
9:56 PM 35.1 °F 27.4 °F 32.0 °F 89% 30.23 in 7.0 mi SE 10.4 mph - N/A   Clear
10:56 PM 32.0 °F 24.8 °F 30.0 °F 92% 30.23 in 4.0 mi SSE 8.1 mph - N/A   Clear
11:56 PM 34.0 °F 26.6 °F 30.9 °F 89% 30.22 in 4.0 mi SSE 9.2 mph - N/A   Clear